     2              OBSERVATION DATA    GPS                 RINEX VERSION / TYPE
teqc 1998Mar9 19980808 00:56:36UTC                          PGM / RUN BY / DATE
                                                            COMMENT
BIT 2 OF LLI FLAGS DATA COLLECTED UNDER A-S CONDITION       COMMENT
BIT 2 OF LLI FLAGS DATA COLLECTED UNDER A-S CONDITION       COMMENT
Original Marker Name: SAN JUAN 1896                         COMMENT
Campaign Name: L.A. Basin 1997                              COMMENT
4-Character Station Name: SJUA                              COMMENT
6-Character Antenna Code: TRMSST                            COMMENT
Vertical Measurement Point: TGP                             COMMENT
Vertical Offset to Rinex Ref. Point: 0.0629                 COMMENT
Radial Measurement Point: NGP                               COMMENT
Radial Offset to Rinex Ref. Point: 0.2334                   COMMENT
Antenna Height from Field Measurement: 0.9130 m             COMMENT
Original XYZ: -2466331.6723 -4690081.8561 3538798.7692      COMMENT
New XYZ position is based on association with SCEC monument COMMENT
E1D0O2D9+0011. Position of that monument is believed to be  COMMENT
valid to within 1 m horizontally; vertical accuracy         COMMENT
should be no worse than 3-times this value.                 COMMENT
                                                            COMMENT
Revised Rinex header created by UCSD GPS archive for        COMMENT
GSAC on 12-Apr-1999 (1999:102) 19:09:31 GMT                 COMMENT
For assistance contact dagnew@ucsd.edu or hjohnson@ucsd.edu COMMENT
                                                            COMMENT
SAN JUAN 1896                                               MARKER NAME
UNKNOWN OBSERVER UCLA                                       OBSERVER / AGENCY
1050 TRIMBLE 4000 SST NP 4.81; SP 4.20                      REC # / TYPE / VERS
25 TR 4000SST L1/L2 GEO                                     ANT # / TYPE
 -2466331.0000 -4690082.0000  3538796.0000                  APPROX POSITION XYZ
        0.8198        0.0000        0.0000                  ANTENNA: DELTA H/E/N
     1     1     0                                          WAVELENGTH FACT L1/2
     3    C1    L1    L2                                    # / TYPES OF OBSERV
     0                                                      INTERVAL
  1997     2     4    23     7    0.000000                  TIME OF FIRST OBS
  1997     2     4    23    59   30.000000                  TIME OF LAST OBS
     0                                                      # OF SATELLITES
                                                            END OF HEADER
 97  2  4 23  7  0.0000000  0  6G 2G27G19G26G 7G15
  21448935.4844         -0.93857
  21485575.1094         -0.31256
  24500387.8364         -0.31653
  22833419.7814         -0.08856
  20541052.5084         -0.52057
  23928393.813          -0.30215
 97  2  4 23  7 30.0000000  0  6G 2G27G19G26G 7G15
  21443646.7274     -27803.02947        -0.31073
  21491575.7274      31537.26846        -0.11072
  24512153.469       61838.832 4
  22825895.9224     -39505.02146
  20530693.3444     -54435.45447        -0.44972
  23925446.500      -15475.756 5        -0.30231
 97  2  4 23  8  0.0000000  0  6G 2G27G19G26G 7G15
  21438382.6254     -55460.86747    -21551.86563
  21497653.5314      63472.32746     24884.33762
  24523939.914      123790.110 3        -0.28831
  22818483.7034     -78465.91046        -0.35471
  20520421.7034    -108420.82047    -42066.95362
  23922611.3914     -30398.98645    -11628.80961
 97  2  4 23  8 30.0000000  0  6G 2G27G19G26G 7G15
  21433150.1884     -82957.29747    -42977.65863
  21503806.9614      95813.92546     50085.56562
  24535759.875      185892.994 3     48391.52021
  22811179.6804    -116848.85246    -29909.14761
  20510239.3364    -161924.48047    -83758.10562
  23919878.4774     -44745.11845    -22807.62761
 97  2  4 23  9  0.0000000  0  6G 2G27G19G26G 7G15
  21427945.9924    -110300.27347    -64283.87163
  21510036.6484     128559.06846     75601.24262
  24547613.063      248151.579 4     96904.66021
  22803980.0864    -154685.14946    -59391.96561
  20500151.2894    -214942.00947   -125070.45662
  23917256.2034     -58528.13245    -33547.64261
 97  2  4 23  9 30.0000000  0  6G 2G27G19G26G 7G15
  21422772.961     -137491.977 7    -85472.20023
  21516344.3754     161699.93946    101425.28262
  24559486.508      310570.260 3
  22796880.0784    -191995.55146    -88464.99661
  20490155.4384    -267462.23647   -165995.30262
  23914741.063      -71754.033 5    -43853.53521
 97  2  4 23 10  0.0000000  0  7G 2G27G19G26G 7G15G 4
  21417622.7734    -164545.26947   -106552.70463
  21522728.4534     195249.20846    127567.54862
  24571397.4144     373163.81144
  22789878.8364    -228790.04546   -117136.03161
  20480260.2274    -319478.48847   -206527.43562
  23912327.8594     -84418.06945    -53721.64061
  24767992.1334         -0.62253
 97  2  4 23 10 30.0000000  0  7G 2G27G19G26G 7G15G 4
  21412499.8914    -191465.99047   -127529.88863
  21529192.5164     229215.67046    154034.90162
  24583341.273      435928.541 3        -0.30831
  22782974.6724    -265073.45846   -145408.82861
  20470456.8914    -370990.44147   -246666.61162
  23910027.2504     -96527.29045    -63157.40261
  24741518.3204    -139117.59144        -0.02571
 97  2  4 23 11  0.0000000  0  7G 2G27G19G26G 7G15G 4
  21407407.0474    -218241.75747   -148394.12563
  21535738.367      263609.695 6    180835.40622
  24595309.344      498843.087 3     49023.98621
  22776163.328     -300854.278 6   -173289.99621
  20460746.6174    -422010.13247   -286422.20162
  23907827.2894    -108079.22445    -72158.92061
  24715026.898     -278332.051 4   -108478.73921
 97  2  4 23 11 30.0000000  0  7G 2G27G19G26G 7G15G 4
  21402335.0004    -244877.16947   -169148.99663
  21542362.6954     298418.56146    207959.18362
  24607312.0944     561888.25143     98150.05361
  22769451.3054    -336133.18446   -200780.05661
  20451127.9694    -472565.65047   -325816.09762
  23905735.7894    -119081.89945    -80732.43561
  24688515.8834    -417652.41644   -217039.93361
 97  2  4 23 12  0.0000000  0  7G 2G27G19G26G 7G15G 4
  21397297.0864    -271369.04947   -189792.01463
  21549065.391      333653.053 6    235414.60722
  24619332.688      625061.063 3    147375.57021
  22762834.1414    -370884.49946   -227858.99961
  20441590.0634    -522672.00447   -364860.00162
  23903744.4924    -129524.84345    -88869.80661
  24661988.4304    -557058.26944   -325667.75661
 97  2  4 23 12 30.0000000  0  7G 2G27G19G26G 7G15G 4
  21392284.5474    -297714.74447   -210321.12963
  21555853.1254     369314.74746    263202.92062
  24631375.984      688357.406 3    196697.33721
  22756325.3594    -405103.71846   -254523.33161
  20432139.5944    -572336.29147   -403559.43062
  23901864.367     -139405.155 5    -96568.76521
  24635447.617     -696525.674 4   -434343.54021
 97  2  4 23 13  0.0000000  0  7G 2G27G19G26G 7G15G 4
  21387298.1564    -323918.72947   -230739.82363
  21562718.3914     405390.92246    291314.20662
  24643445.375      751767.529 4    246107.78221
  22749913.2034    -438811.99446   -280789.52661
  20422767.7424    -621583.94647   -441934.21462
  23900089.8594    -148730.86345   -103835.52161
  24608890.3594    -836067.32344   -543077.14561
 97  2  4 23 13 30.0000000  0  7G 2G27G19G26G 7G15G 4
  21382333.1174    -350001.77547   -251064.28563
  21569657.7034     441869.04746    319738.69962
  24655534.6954     815308.33943    295620.05261
  22743600.5004    -472005.21646   -306654.37261
  20413478.0474    -670404.82047   -479976.43962
  23898417.7424    -157508.56645   -110675.29861
  24582333.3284    -975665.20644   -651854.61361
 97  2  4 23 14  0.0000000  0  7G 2G27G19G26G 7G15G 4
  21377391.8134    -375965.30647   -271295.60662
  21576675.742      478737.060 6    348466.99722
  24667651.414      878991.886 3    345243.57421
  22737375.3524    -504686.76346   -332120.51061
  20404272.0864    -718795.12647   -517683.15762
  23896859.6414    -165737.30745   -117087.30661
  24555757.0554   -1115303.61144   -760663.64361
 97  2  4 23 14 30.0000000  0  7G 2G27G19G26G 7G15G 4
  21372482.1334    -401769.77047   -291402.98562
  21583768.0944     516006.17846    377507.85262
  24679802.9844     942842.71643    394997.40961
  22731252.7034    -536857.40646   -357188.54261
  20395148.5634    -766729.81147   -555034.84662
  23895399.2034    -173402.66245   -123060.29361
  24529175.195    -1254961.294 4   -869487.65421
 97  2  4 23 15  0.0000000  0  7G 2G27G19G26G 7G15G 4
  21367604.0474    -427412.89847   -311384.64663
  21590932.4454     553659.47446    406848.06262
  24691991.1884    1006859.36843    444880.48261
  22725225.4384    -568525.17446   -381864.72261
  20386114.1024    -814200.34747   -592024.86762
  23894048.195     -180510.609 5   -128598.94421
  24502599.3284   -1394651.16144   -978336.80361
 97  2  4 23 15 30.0000000  0  7G 2G27G19G26G 7G15G 4
  21362748.9304    -452916.56947   -331257.63563
  21598169.930      591691.599 6    436483.46222
  24704197.4924    1071041.03543    494892.11161
  22719302.8284    -599689.69846   -406148.76561
  20377171.1724    -861198.53647   -628646.82762
  23892797.3674    -187070.51745   -133710.57161
  24476005.648    -1534376.861 4  -1087213.86721
 97  2  4 23 16  0.0000000  0  7G 2G27G19G26G 7G15G 4
  21357925.2894    -478260.08147   -351005.82962
  21605482.1644     630115.63246    466424.24761
  24716443.8594    1135378.97143    545025.52861
  22713463.0864    -630356.35646   -430044.86761
  20368320.0474    -907721.36447   -664898.37062
  23891651.6564    -193077.57545   -138391.39961
  24449415.3364   -1674149.42044  -1196127.41661
 97  2  4 23 16 30.0000000  0  6G 2G27G26G 7G15G 4
  21353132.5944    -503453.62847   -370637.16363
  21612873.7504     668954.74446    496688.46861
  22707724.0004    -660517.76246   -453547.25761
  20359560.5234    -953749.52647   -700764.46162
  23890616.3914    -198532.85345   -142642.26961
  24422800.5474   -1813979.72144  -1305085.96861
 97  2  4 23 17  0.0000000  0  6G 2G27G26G 7G15G 4
  21348356.1094    -528539.82947   -390184.84762
  21620342.711      708202.089 6    527270.79221
  22702084.9144    -690162.41146   -476646.98661
  20350895.5554    -999290.14547   -736250.65262
  23889679.9924    -203444.50045   -146469.52761
  24396183.133    -1953872.086 5  -1414092.88521
 97  2  4 23 17 30.0000000  0  6G 2G27G26G 7G15G 4
  21343604.8674    -553505.05947   -409638.27262
  21627888.7034     747864.91546    558176.86761
  22696540.1174    -719276.83246   -499333.54561
  20342322.3444   -1044345.02547   -771358.34162
  23888850.6804    -207805.82845   -149867.97761
  24369549.8524   -2093815.14944  -1523139.32161
 97  2  4 23 18  0.0000000  0  6G 2G27G26G 7G15G 4
  21338879.1724    -578347.25047   -428995.82262
  21635511.414      787924.437 6    589392.06121
  22691103.5084    -747865.13946   -521610.15561
  20333837.6484   -1088928.22547   -806098.48662
  23888117.3594    -211622.74545   -152842.21961
  24342908.9304   -2233808.85144  -1632225.22461
 97  2  4 23 18 30.0000000  0  6G 2G27G26G 7G15G 4
  21334177.0944    -603060.11147   -448252.59562
  21643210.8674     828381.84046    620917.28361
  22685768.6334    -775908.93746   -543462.45761
  20325441.2194   -1133034.89447   -840467.30462
  23887506.6954    -214879.91645   -155380.27761
  24316269.2034   -2373823.71745  -1741327.62561
 97  2  4 23 19  0.0000000  0  6G 2G27G26G 7G15G 4
  21329499.5004    -627631.82247   -467399.38362
  21650979.6724     869205.89946    652728.21561
  22680529.5394    -803430.97846   -564908.20761
  20317137.3984   -1176692.71947   -874486.37862
  23886987.055     -217585.323 5   -157488.40121
  24289621.3524   -2513866.78445  -1850451.97761
 97  2  4 23 19 30.0000000  0  6G 2G27G26G 7G15G 4
  21324854.1334    -652044.58447   -486422.31662
  21658819.203      910396.959 6    684825.12121
  22675388.7194    -830460.49946   -585970.16961
  20308913.4224   -1219909.34447   -908161.65762
  23886576.9534    -219742.82945   -159169.56961
  24262960.4924   -2653942.38145  -1959601.72661
 97  2  4 23 20  0.0000000  0  6G 2G27G26G 7G15G 4
  21320234.7344    -676316.57347   -505335.55762
  21666725.9774     951952.86946    717206.32861
  22670329.6804    -857004.50746   -606653.81561
  20300773.0314   -1262697.04647   -941502.71162
  23886274.4534    -221356.93445   -160427.30661
  24236300.3834   -2794053.50145  -2068779.13861
 97  2  4 23 20 30.0000000  0  6G 2G27G26G 7G15G 4
  21315646.3284    -700432.02847   -524126.82362
  21674706.7274     993893.56046    749887.36061
  22665372.3674    -883065.02346   -626960.70761
  20292711.2034   -1305050.37747   -974505.29762
  23886069.859     -222419.864 5   -161255.57121
  24209629.969    -2934203.895 5  -2177987.14421
 97  2  4 23 21  0.0000000  0  6G 2G27G26G 7G15G 4
  21311091.1414    -724391.21247   -542796.31862
  21682762.586     1036228.455 6    782875.56621
  22660505.9924    -908648.95746   -646896.24961
  20284730.8444   -1346972.34647  -1007171.75662
  23885972.289     -222940.120 5
  24182951.3594   -3074400.15345  -2287230.90861
 97  2  4 23 21 30.0000000  0  6G 2G27G26G 7G15G 4
  21306555.9384    -748201.28647   -561349.62462
  21690894.0474    1078970.47346    816181.01261
  22655727.1024    -933746.19846   -666452.54261
  20276841.2664   -1388461.16647  -1039500.69662
  23885973.539     -222920.761 5
  24156268.641    -3214623.014 5  -2396495.38921
 97  2  4 23 22  0.0000000  0  6G 2G27G26G 7G15G 4
  21302053.8284    -771864.26247   -579788.31162
  21699106.9534    1122114.31446    849799.56061
  22651054.5394    -958344.63346   -685620.16461
  20269024.2894   -1429513.41547  -1071489.45062
  23886078.7894    -222365.12245
  24129580.1094   -3354871.63945  -2505779.93861
 97  2  4 23 22 30.0000000  0  6G 2G27G26G 7G15G 4
  21297586.9694    -795353.65447   -598091.73662
  21707397.4454    1165680.89446    883747.50861
  22646463.8134    -982428.30546   -704386.67461
  20261299.8754   -1470100.34947  -1103115.61662
  23886287.555     -221259.415 5   -160351.35821
  24102890.531    -3495115.777 5  -2615061.04321
 97  2  4 23 23  0.0000000  0  6G 2G27G26G 7G15G 4
  21293144.3984    -818693.08747
  21715763.813     1209646.152 6    918006.12421
  22641977.5944   -1005998.43146
  20253664.0164   -1510235.40547  -1134389.67562
  23886600.1334    -219619.11245   -159073.18861
  24076208.2664   -3635343.74145  -2724329.49161
 97  2  4 23 23 30.0000000  0  6G 2G27G26G 7G15G 4
  21288726.9144    -841891.56247   -634355.03762
  21724200.414     1253987.922 6    952558.12421
  22637589.8984   -1029057.68546   -740721.26161
  20246115.5554   -1549921.57047  -1165313.94962
  23887019.3984    -217446.59245   -157380.33661
  24049524.180    -3775566.213 5  -2833593.69421
 97  2  4 23 24  0.0000000  0  6G 2G27G26G 7G15G 4
  21284340.9924    -864956.71047   -652327.87462
  21732708.3674    1298693.00946    987393.22861
  22633300.3444   -1051615.11346   -758298.47761
  20238643.5394   -1589163.09747  -1195891.75562
  23887529.4694    -214743.15345   -155273.76961
  24022839.281    -3915793.956 5  -2942861.97421
 97  2  4 23 24 30.0000000  0  6G 2G27G26G 7G15G 4
  21279978.0394    -887879.80047   -670190.02762
  21741287.133     1343775.898 6   1022522.73121
  22629103.7894   -1073666.42046   -775481.32961
  20231264.1254   -1627957.62747  -1226121.25162
  23888147.328     -211497.263 5   -152744.52021
  23996156.453    -4056006.307 5  -3052118.25821
 97  2  4 23 25  0.0000000  0  6G 2G27G26G 7G15G 4
  21275640.3754    -910664.03447   -687943.97562
  21749933.969     1389223.247 6   1057936.21921
  22625006.4694   -1095221.31346   -792277.34561
  20223967.3594   -1666307.75447  -1256004.45762
  23888870.6484    -207707.62245   -149791.54761
  23969476.3594   -4196213.40645  -3161370.47561
 97  2  4 23 25 30.0000000  0  6G 2G27G26G 7G15G 4
  21271333.2664    -933301.24347   -705583.35463
  21758655.1414    1435034.82546   1093633.52561
  22620993.9144   -1116287.16146   -808692.30561
  20216755.3984   -1704207.76647  -1285536.92862
  23889691.7034    -203374.60445   -146415.17361
  23942796.2424   -4336422.75245  -3270624.43161
 97  2  4 23 26  0.0000000  0  6G 2G27G26G 7G15G 4
  21267055.1484    -955801.56047   -723116.06962
  21767438.516     1481204.968 6   1129610.23221
  22617072.4844   -1136880.28546   -824738.90161
  20209623.3284   -1741660.06147  -1314720.53362
  23890618.0084    -198512.35445   -142626.40661
  23916115.6724   -4476630.17445  -3379876.88761
 97  2  4 23 26 30.0000000  0  6G 2G27G26G 7G15G 4
  21262795.3674    -978162.28547   -740540.01062
  21776293.2734    1527727.86046   1165861.80461
  22613248.8284   -1157001.92946   -840418.11261
  20202588.8524   -1778650.68047  -1343544.38962
  23891643.9144    -193125.38645   -138428.76461
  23889439.3524   -4616837.11845  -3489128.97861
 97  2  4 23 26 59.9990000  0  6G 2G27G26G 7G15G 4
  21258571.7844   -1000376.66947   -757849.91963
  21785210.847     1574596.420 6   1202382.73921
  22609510.9014   -1176633.03246   -855715.08761
  20195636.5584   -1815164.24247  -1371996.50762
  23892767.7304    -187206.88045   -133816.94361
  23862752.1514   -4757040.10745  -3598377.98061
 97  2  4 23 27 29.9990000  0  6G 2G27G26G 7G15G 4
  21254372.6904   -1022443.63547   -775044.95263
  21794200.464     1621835.893 6   1239192.69121
  22605867.3394   -1195763.97346   -870622.31361
  20188776.6444   -1851213.45247  -1400086.79062
  23894002.112     -180755.068 5   -128789.56821
  23836076.198    -4897231.752 5  -3707618.13521
 97  2  4 23 27 59.9990000  0  6G 2G27G26G 7G15G 4
  21250202.0034   -1044361.07847   -792123.48463
  21803260.105     1669442.805 6   1276288.95521
  22602323.9334   -1214399.33846   -885143.38261
  20182003.3474   -1886814.73747  -1427828.04762
  23895326.9724    -173775.23445   -123350.71361
  23809402.605    -5037415.512 5  -3816852.16721
 97  2  4 23 28 29.9990000  0  6G 2G27G26G 7G15G 4
  21246057.4644   -1066119.59147   -809078.16563
  21812392.2694    1717435.38146   1313685.74361
  22598878.6204   -1232521.24546   -899264.34561
  20175311.7064   -1921995.44747  -1455241.58362
  23896756.987     -166262.193 5   -117496.39321
  23782722.8314   -5177589.26445  -3926078.41361
 97  2  4 23 28 59.9990000  0  6G 2G27G26G 7G15G 4
  21241948.3084   -1087732.26347   -825919.21063
  21821595.5344    1765797.41746   1351370.42361
  22595521.8004   -1250146.27446   -912998.14261
  20168685.3704   -1956798.37647  -1482360.74162
  23898284.2614    -158236.62745   -111242.71061
  23756051.019    -5317761.481 5  -4035303.44921
 97  2  4 23 29 29.9990000  0  6G 2G27G26G 7G15G 4
  21237865.6204   -1109175.24547   -842628.02563
  21830870.909     1814542.570 6   1389353.62621
  22592257.4954   -1267288.63346   -926355.81761
  20162140.3314   -1991215.72647  -1509179.44562
  23899908.3004    -149688.65045   -104581.92761
  23729388.628    -5457906.099 5  -4144506.99221
 97  2  4 23 29 59.9990000  0  5G27G26G 7G15G 4
  21840221.4954    1863669.95246   1427634.67761
  22589085.1364   -1283939.72646   -939330.69361
  20155665.3474   -2025221.81547  -1535677.69062
  23901634.550     -140607.407 5    -97505.64221
  23702730.2844   -5598010.26745  -4253679.00461
 97  2  4 23 30 29.9990000  0  7G 2G27G 9G26G 7G15G 4
  21229809.495          -0.82917
  21849638.581     1913168.937 6   1466205.28421
  24493704.933          -0.07513
  22586012.5424   -1300109.59346   -951930.59261
  20149274.3474   -2058800.75047  -1561843.08562
  23903466.784     -131000.122 5    -90019.43421
  23676067.9094   -5738059.89945  -4362808.54361
 97  2  4 23 30 59.9990000  0  7G 2G27G 9G26G 7G15G 4
  21225820.8864     -20948.85947        -0.17573
  21859124.347     1963011.014 6   1505043.23621
  24467540.2694    -137482.41344        -0.04171
  22583026.7304   -1315822.02046   -964174.03861
  20142973.3474   -2091914.56747  -1587646.05262
  23905389.7064    -120871.34145    -82126.87561
  23649431.628    -5878052.595 5  -4471893.70221
 97  2  4 23 31 29.9990000  0  7G 2G27G 9G26G 7G15G 4
  21221855.4404     -41778.50447    -16231.07363
  21868672.409     2013186.394 6   1544140.91221
  24441385.7614    -274925.52344   -107098.49461
  22580115.8704   -1331088.16046   -976069.73561
  20136765.5344   -2124563.56047  -1613086.81962
  23907416.5584    -110233.23345    -73837.44161
  23622801.409    -6018004.085 5  -4580946.76621
 97  2  4 23 31 59.9990000  0  7G 2G27G 9G26G 7G15G 4
  21217916.5194     -62499.37047    -32377.19863
  21878286.222     2063707.912 6   1583508.30121
  24415244.4484    -412309.36244   -214150.78761
  22577301.8004   -1345874.64346   -987591.67261
  20130638.3704   -2156731.51647  -1638152.74962
  23909538.4804     -99078.24245    -65145.26061
  23596179.3554   -6157909.93645  -4689964.28661
 97  2  4 23 32 29.9990000  0  7G 2G27G 9G26G 7G15G 4
  21213996.6444     -83103.97747    -48432.73963
  21887964.558     2114559.024 6   1623132.51821
  24389110.651     -549628.822 4   -321152.93321
  22574581.3944   -1360182.48846   -998740.64761
  20124607.4874   -2188425.71347  -1662849.51662
  23911760.5344     -87407.14245    -56050.87361
  23569564.7764   -6297775.83645  -4798950.65061
 97  2  4 23 32 59.9990000  0  7G 2G27G 9G26G 7G15G 4
  21210102.4954    -103556.28047    -64369.59763
  21897704.440     2165750.942 6   1663022.29221
  24362993.159     -686873.326 4   -428096.67121
  22571953.7534   -1373998.51646  -1009506.38661
  20118664.0034   -2219660.22747  -1687188.09162
  23914080.1674     -75212.60045    -46548.64061
  23542951.4804   -6437601.45345  -4907905.65661
 97  2  4 23 33 29.9990000  0  7G 2G27G 9G26G 7G15G 4
  21206240.7454    -123844.70147    -80178.75663
  21907510.886     2217289.029 6   1703181.82121
  24336897.3704    -824033.81844   -534974.92761
  22569415.2224   -1387322.97746  -1019889.08661
  20112802.8154   -2250462.69147  -1711190.00162
  23916503.3554     -62499.04245    -36641.96261
  23516349.386    -6577391.850 5  -5016833.20621
 97  2  4 23 33 59.9990000  0  7G 2G27G 9G26G 7G15G 4
  21202412.2454    -143950.64047    -95845.72463
  21917384.026     2269157.471 6   1743598.75621
  24310807.097     -961118.290 4   -641793.92921
  22566975.948    -1400168.715 6  -1029898.74821
  20107023.8154   -2280845.52547  -1734864.93062
  23919016.011      -49271.054 5    -26334.43121
  23489760.253    -6717147.599 5  -5125733.75121
 97  2  4 23 34 29.9990000  0  7G 2G27G 9G26G 7G15G 4
  21198626.6594    -163852.45047   -111353.63363
  21927314.526     2321359.549 6   1784275.67921
  24284734.0584   -1098132.42344   -748558.15461
  22564618.9724   -1412546.56846  -1039543.84361
  20101316.1904   -2310823.95847  -1758224.74362
  23921633.3554     -35525.34545    -15623.50561
  23463174.1904   -6856859.61945  -5234600.22161
 97  2  4 23 34 59.9990000  0  7G 2G27G 9G26G 7G15G 4
  21194872.1124    -183572.87747   -126720.20463
  21937315.808     2373905.932 6   1825220.88221
  24258671.081    -1235084.507 4   -855274.04021
  22562352.8474   -1424466.13246  -1048831.82061
  20095690.4334   -2340408.79347  -1781277.85362
  23924345.5974     -21269.56945     -4515.11561
  23436592.190    -6996507.232 5  -5343416.48221
 97  2  4 23 35 29.9990000  0  7G 2G27G 9G26G 7G15G 4
  21191151.9724    -203135.27247   -141963.63663
  21947379.503     2426789.343 6   1866428.70621
  24232628.550    -1371985.836 4   -961950.33421
  22560164.1674   -1435945.12246  -1057776.48961
  20090131.7224   -2369602.02547  -1804025.82362
  23927153.9404      -6514.27945      6982.50861
  23410033.839    -7136093.917 5  -5452185.31121
 97  2  4 23 35 59.9990000  0  7G 2G27G 9G26G 7G15G 4
  21187461.4014    -222539.70347   -157083.96863
  21957508.589     2480023.263 6   1907909.64721
  24206582.1514   -1508839.40744  -1068589.43061
  22558071.1594   -1446964.51446  -1066363.03461
  20084650.1594   -2398401.10747  -1826466.65862
  23930062.550        8747.888 5     18875.10721
  23383489.6674   -7275598.18245  -5560889.86761
 97  2  4 23 36 29.9990000  0  7G 2G27G 9G26G 7G15G 4
  21183795.4564    -241798.34847   -172090.70663
  21967707.690     2533610.740 6   1949666.08821
  24180546.909    -1645644.643 4  -1175190.85121
  22556055.5114   -1457527.68046  -1074594.07661
  20079245.9014   -2426801.69947  -1848596.98562
  23933059.8394      24513.75845     31160.18161
  23356960.737    -7415003.412 5  -5669517.28521
 97  2  4 23 36 59.9990000  0  7G 2G27G 9G26G 7G15G 4
  21180154.6364    -260918.43147   -186989.47662
  21977969.487     2587554.112 6   1991699.86321
  24154528.2454   -1782387.19544  -1281743.46361
  22554138.8704   -1467624.45146  -1082461.69161
  20073926.2534   -2454779.82647  -1870398.11762
  23936159.4484      40789.57445     43842.65061
  23330454.589    -7554301.655 5  -5778061.32721
 97  2  4 23 37 29.9990000  0  7G 2G27G 9G26G 7G15G 4
  21176547.3704    -279892.21047   -201774.24062
  21988304.8004    2641856.05746   2034013.03761
  24128518.3624   -1919055.97344  -1388238.55361
  22552303.6054   -1477245.86646  -1089958.89761
  20068680.3624   -2482327.97447  -1891864.19862
  23939348.855       57576.175 5     56923.09421
  23303963.0974   -7693509.43045  -5886534.86861
 97  2  4 23 37 59.9990000  0  7G 2G27G 9G26G 7G15G 4
  21172958.8004    -298729.94047   -216452.98963
  21998701.722     2696487.272 6   2076582.78821
  24102523.784    -2055663.435 4  -1494685.87421
  22550558.8474   -1486408.41446  -1097098.55061
  20063520.9174   -2509462.07547  -1913007.64862
  23942639.995       74857.471 5     70389.04621
  23277484.3474   -7832633.60145  -5994943.27061
 97  2  4 23 38 29.9990000  0  7G 2G27G 9G26G 7G15G 4
  21169402.9094    -317419.56647   -231016.33062
  22009160.2374    2751453.86846   2119413.87061
  24076544.8624   -2192186.55944  -1601067.48061
  22548908.3704   -1495113.03846  -1103881.38261
  20058437.4254   -2536160.98647  -1933811.99162
  23946024.0194      92642.66245     84247.64461
  23251028.987    -7971668.935 5  -6103282.44821
 97  2  4 23 38 59.9990000  0  7G 2G27G 9G26G 7G15G 4
  21165873.9334    -335967.55747   -245469.31162
  22019683.300     2806755.413 6   2162505.95021
  24050582.5424   -2328621.94344  -1707380.70661
  22547338.3314   -1503361.06446  -1110308.41361
  20053436.1444   -2562439.48847  -1954288.73862
  23949500.7374     110922.11445     98491.36461
  23224585.651    -8110639.023 5  -6211570.78321
 97  2  4 23 39 29.9990000  0  7G 2G27G 9G26G 7G15G 4
  21162375.7534    -354346.36547   -259790.45462
  22030273.847     2862397.229 6   2205863.18321
  24024636.987    -2464957.495 4  -1813616.14621
  22545854.7304   -1511139.18746  -1116369.29961
  20048519.5034   -2588295.50747  -1974436.27562
  23953073.472      129702.383 5    113125.33721
  23198158.5034   -8249531.66045  -6319798.75361
 97  2  4 23 39 59.9990000  0  7G 2G27G 9G26G 7G15G 4
  21158911.6284    -372555.17347   -273979.13562
  22040919.870     2918354.850 6   2249466.49121
  23998711.183    -2601199.814 4  -1919778.91421
  22544463.7374   -1518452.21046  -1122067.74561
  20043678.2374   -2613733.97847  -1994258.45162
  23956742.6054     148975.75445    128143.53561
  23171743.526    -8388348.026 5  -6427967.31821
 97  2  4 23 40 29.9990000  0  7G 2G27G 9G26G 7G15G 4
  21155480.1284    -390597.85647   -288038.37162
  22051630.776     2974634.570 6   2293320.78321
  23972802.4804   -2737344.77044  -2025865.82061
  22543168.0034   -1525282.12646  -1127389.77161
  20038912.8624   -2638755.88747  -2013756.03362
  23960501.1984     168741.91345    143545.72761
  23145338.675    -8527088.661 5  -6536076.86521
 97  2  4 23 40 59.9990000  0  7G 2G27G 9G26G 7G15G 4
  21152079.4724    -408470.35547   -301964.99162
  22062400.159     3031226.268 6   2337418.17321
  23946911.433    -2873393.068 4  -2131877.43121
  22541957.8554   -1531628.66146  -1132335.12061
  20034233.3234   -2663351.31747  -2032921.29962
  23964360.7454     188998.71145    159330.22861
  23118953.3554   -8665738.21845  -6644115.41461
 97  2  4 23 41 29.9990000  0  7G 2G27G 9G26G 7G15G 4
  21148708.3234    -426171.72047   -315758.26162
  22073223.776     3088109.398 6   2381742.66521
  23921037.308    -3009359.757 4  -2237825.42621
  22540840.8474   -1537508.10946  -1136916.51361
  20029637.8234   -2687516.69047  -2051751.44662
  23968301.7144     209737.14145    175490.03461
  23092588.909    -8804287.148 5  -6752075.59521
 97  2  4 23 41 59.9990000  0  7G 2G27G 9G26G 7G15G 4
  21145371.8314    -443704.35347   -329420.05462
  22084107.534     3145302.098 6   2426308.36621
  23895181.823    -3145238.204 4  -2343704.69021
  22539807.2454   -1542939.51646  -1141148.77661
  20025121.4644   -2711250.63347  -2070245.41862
  23972347.5034     230963.93945    192030.37561
  23066249.0114   -8942717.60845  -6859943.43861
 97  2  4 23 42 29.9990000  0  7G 2G27G 9G26G 7G15G 4
  21142070.2764    -461059.04347   -342943.19462
  22095056.667     3202829.758 6   2471135.07821
  23869338.683    -3281025.710 4  -2449513.07221
  22538855.7224   -1547941.63846  -1145046.53861
  20020686.0894   -2734550.81047  -2088401.38562
  23976479.9334     252684.42645    208955.42361
  23039931.276    -9081006.634 5  -6967701.07521
 97  2  4 23 42 59.9990000  0  7G 2G27G 9G26G 7G15G 4
  21138803.1904    -478239.44247   -356330.51962
  22106064.292     3260690.816 6   2516221.57221
  23843521.5584   -3416730.68044  -2555257.14361
  22537975.097    -1552542.110 6  -1148631.33521
  20016330.2064   -2757429.46747  -2106228.91363
  23980704.8314     274889.67445    226258.21561
  23013641.581    -9219157.909 5  -7075351.37021
 97  2  4 23 43 29.9990000  0  7G 2G27G 9G26G 7G15G 4
  21135559.4174    -495266.38847   -369598.26562
  22117136.7844    3318868.93446   2561555.13061
  23817707.9174   -3552367.15644  -2660947.84761
  22537174.0264   -1556755.84946  -1151914.76361
  20012052.1984   -2779933.69347  -2123764.65962
  23985023.620      297563.047 5    243925.77221
  22987376.9954   -9357194.32045  -7182912.17761
 97  2  4 23 43 59.9990000  0  7G 2G27G 9G26G 7G15G 4
  21132354.0424    -512127.70147   -382736.95662
  22128272.386     3377379.168 6   2607147.48621
  23791917.8474   -3687898.14844  -2766556.34161
  22536456.1204   -1560550.67646  -1154871.79461
  20007835.6984   -2802063.09947  -2141008.34562
  23989424.5734     320725.55945    261974.45861
  22961135.753    -9495094.407 5  -7290366.75021
 97  2  4 23 44 29.9990000  0  7G 2G27G 9G26G 7G15G 4
  21129172.8864    -528836.59947   -395756.87362
  22139463.784     3436187.925 6   2652972.44721
  23766147.628    -3823336.842 4  -2872092.93721
  22535813.6674   -1563913.97146  -1157492.54361
  20003696.5894   -2823828.16747  -2157968.12663
  23993924.1204     344362.44445    280392.82761
  22934916.394    -9632869.258 5  -7397723.73221
 97  2  4 23 44 59.9990000  0  7G 2G27G 9G26G 7G15G 4
  21126023.2144    -545380.20147   -408648.00062
  22150710.308     3495300.434 6   2699034.10721
  23740399.5654   -3958637.63444  -2977522.07461
  22535263.2844   -1566804.08546  -1159744.59461
  19999630.7534   -2845211.10247  -2174630.15363
  23998521.0264     368492.22645    299195.22761
  22908723.651    -9770506.739 5  -7504973.67521
 97  2  4 23 45 29.9990000  0  7G 2G27G 9G26G 7G15G 4
  21122905.9174    -561763.00147   -421413.82062
  22162015.784     3554707.304 6   2745325.13321
  23714677.503    -4093801.271 4  -3082844.32421
  22534799.6444   -1569231.83446  -1161636.34861
  19995633.6124   -2866218.50347  -2190999.55363
  24003202.0424     393101.85045    318371.56661
  22882557.2454   -9908018.75246  -7612125.85061
 97  2  4 23 45 59.9990000  0  7G 2G27G 9G26G 7G15G 4
  21119820.6834    -577980.67447   -434050.96962
  22173374.198     3614421.524 6   2791855.66821
  23688978.355    -4228832.550 4  -3188063.43321
  22534425.7374   -1571213.53846  -1163180.53261
  19991708.3004   -2886829.11447  -2207059.76162
  24007973.5814     418185.62145    337917.35761
  22856411.948   -10045406.328 5  -7719181.07221
 97  2  4 23 46 29.9990000  0  7G 2G27G 9G26G 7G15G 4
  21116772.5974    -594012.86347   -446543.58362
  22184803.847     3674452.562 6   2838633.06921
  23663311.589    -4363733.554 5  -3293181.03821
  22534130.5814   -1572758.54846  -1164384.44461
  19987863.6984   -2907017.52447  -2222790.98463
  24012839.6444     443747.02945    357835.33661
  22830290.394   -10182671.752 6  -7826141.10521
 97  2  4 23 46 59.9990000  0  7G 2G27G 9G26G 7G15G 4
  21113752.3704    -609860.22147   -458892.17962
  22196285.3474    3734799.20346   2885656.39161
  23637663.7224   -4498504.43345  -3398197.26261
  22533915.8394   -1573895.10746  -1165270.07761
  19984107.5654   -2926790.15947  -2238198.22763
  24017791.3944     469775.71345    378117.42361
  22804192.4804  -10319826.79946  -7933015.12261
 97  2  4 23 47 29.9980000  0  7G 2G27G 9G26G 7G15G 4
  21110775.0614    -625525.91347   -471099.21362
  22207825.436     3795442.776 6   2932911.08021
  23612042.201    -4633166.749 5  -3503128.89021
  22533769.9514   -1574640.87546  -1165851.20161
  19980416.0534   -2946155.22047  -2253287.88563
  24022830.2094     496260.79545    398755.16661
  22778111.912   -10456870.036 6  -8039802.02621
 97  2  4 23 47 59.9980000  0  7G 2G27G 9G26G 7G15G 4
  21107830.1544    -641003.65247   -483159.78862
  22219423.272     3856386.401 6   2980399.59621
  23586435.842    -4767704.837 5  -3607963.71021
  22533708.0764   -1574964.72446
  19976814.3574   -2965091.87147  -2268043.71663
  24027960.334      523221.343 5    419763.38221
  22752057.240   -10593786.722 6  -8146490.32521
 97  2  4 23 48 29.9980000  0  7G 2G27G 9G26G 7G15G 4
  21104915.5684    -656313.17947   -495089.28962
  22231072.311     3917599.652 6   3028098.19621
  23560862.412    -4902109.821 5  -3712694.82221
  22533729.639    -1574853.115 6
  19973288.9904   -2983626.55847  -2282486.32163
  24033181.8344     550649.41445    441135.92161
  22726026.7794  -10730565.61246  -8253071.24261
 97  2  4 23 48 59.9980000  0  7G 2G27G 9G26G 7G15G 4
  21102027.1394    -671492.00547   -506916.94462
  22242771.045     3979076.274 6   3076002.01921
  23535310.4514   -5036391.53245  -3817329.87261
  22533833.9754   -1574311.90046  -1165594.87461
  19969830.6004   -3001791.01647  -2296640.44163
  24038486.975      578529.302 5    462860.53521
  22700029.928   -10867201.989 6  -8359541.09921
 97  2  4 23 49 29.9980000  0  7G 2G27G 9G26G 7G15G 4
  21099163.9824    -686542.51347   -518644.61462
  22254520.303     4040818.892 6   3124113.12721
  23509776.365    -5170556.052 5  -3921873.61721
  22534023.4824   -1573333.28346  -1164832.33161
  19966442.1784   -3019589.41847  -2310509.31763
  24043880.4044     606861.27145    484937.39561
  22674059.6074  -11003677.78246  -8465885.83261
 97  2  4 23 49 59.9980000  0  7G 2G27G 9G26G 7G15G 4
  21096326.3814    -701442.96747   -530255.35362
  22266322.748     4102853.182 6   3172451.50821
  23484274.3504   -5304585.10845  -4026311.78561
  22534288.4824   -1571905.94746  -1163720.13561
  19963134.7724   -3037002.40347  -2324077.87463
  24049354.068      635660.205 5    507378.15121
  22648122.873   -11139966.591 6  -8572084.86421
 97  2  4 23 50 29.9980000  0  7G 2G27G 9G26G 7G15G 4
  21093524.2954    -716179.35647   -541738.25562
  22278185.5454    4165186.25546   3221022.69761
  23458787.920    -5438503.629 5  -4130663.84721
  22534644.2724   -1570053.98746  -1162277.05761
  19959887.9434   -3054040.81747  -2337354.55663
  24054925.186      664917.935 5    530176.37421
  22622226.2014  -11276064.69046  -8678135.27061
 97  2  4 23 50 59.9980000  0  7G 2G27G 9G26G 7G15G 4
  21090754.3654    -730721.11447   -553069.49762
  22290107.053     4227828.362 6   3269834.69421
  23433323.6314   -5572322.82145  -4234938.47561
  22535076.3974   -1567790.75846  -1160513.51761
  19956725.0534   -3070681.42947  -2350321.26163
  24060576.9824     694632.61745    553330.70961
  22596361.061   -11411979.285 6  -8784042.69121
 97  2  4 23 51 29.9980000  0  6G 2G27G 9G26G 7G 4
  21088029.0144    -745047.90447   -564233.22862
  22302083.7644    4290765.31746   3318876.44361
  23407877.2644   -5706047.58345  -4339139.56661
  22535584.4594   -1565120.67546  -1158432.94061
  19953633.2954   -3086916.83347  -2362972.21663
  22570531.5764  -11547725.35246  -8889818.79461
 97  2  4 23 51 59.9980000  0  6G 2G27G 9G26G 7G 4
  21085345.0764    -759162.89547   -575231.92262
  22314113.795     4353999.910 6   3368150.10521
  23382454.7254   -5839664.99845  -4443256.97861
  22536167.9514   -1562038.58846  -1156031.32161
  19950618.4594   -3102749.69847  -2375309.51063
  22544730.0764  -11683312.21246  -8995470.83761
 97  2  4 23 52 29.9980000  0  6G 2G27G 9G26G 7G 4
  21082695.3504    -773076.94547   -586074.03662
  22326202.920     4417526.854 6   3417651.58521
  23357043.436    -5973171.579 5  -4547288.04321
  22536837.6544   -1558537.18646  -1153302.95661
  19947679.7484   -3118188.53847  -2387339.76863
  22518956.8344  -11818743.38146  -9101001.55861
 97  2  4 23 52 59.9980000  0  6G 2G27G 9G26G 7G 4
  21080081.2954    -786809.81447   -596774.97962
  22338347.373     4481335.361 6   3467372.46021
  23331670.451    -6106544.457 5  -4651214.91321
  22537582.3344   -1554617.55146  -1150248.70861
  19944816.1314   -3133250.42147  -2399076.29263
  22493215.154   -11954018.694 6  -9206410.83821
 97  2  4 23 53 29.9980000  0  6G 2G27G 9G26G 7G 4
  21077497.4204    -800388.00147   -607355.38762
  22350542.2014    4545415.15846   3517304.72661
  23306312.7094   -6239761.49745  -4755020.34161
  22538404.6234   -1550297.36846  -1146882.33861
  19942017.0374   -3147964.26247  -2410541.61863
  22467505.1004  -12089121.63046  -9311685.81261
 97  2  4 23 53 59.9980000  0  6G 2G27G 9G26G 7G 4
  21074946.3114    -813809.95947   -617814.06162
  22362787.654     4609770.016 5   3567451.33721
  23280997.623    -6372805.187 5  -4858690.70721
  22539301.5684   -1545586.23246  -1143211.32961
  19939276.7094   -3162341.11647  -2421744.35963
  22441834.3264  -12224032.44546  -9416811.07361
 97  2  4 23 54 29.9980000  0  6G 2G27G 9G26G 7G 4
  21072422.4674    -827055.75747   -628135.46962
  22375087.076     4674400.835 5   3617812.97921
  23255718.2724   -6505662.77845  -4962216.05061
  22540269.4674   -1540490.01246  -1139240.25961
  19936612.0064   -3176369.08647  -2432675.23863
  22416200.022   -12358733.625 6  -9521772.99121
 97  2  4 23 54 59.9980000  0  6G 2G27G 9G26G 7G 4
  21069938.8814    -840131.04547   -638324.00662
  22387435.701     4739288.028 5   3668374.38621
  23230468.0294   -6638338.80645  -5065599.91161
  22541307.2874   -1535037.12446  -1134991.26161
  19934003.5534   -3190056.95747  -2443341.10463
  22390603.0614  -12493239.90746  -9626583.04561
 97  2  4 23 55 29.9980000  0  6G 2G27G 9G26G 7G 4
  21067482.3034    -853027.21447   -648372.96862
  22399831.2014    4804433.29645   3719136.88761
  23205254.717    -6770836.935 5  -5168845.16421
  22542417.5764   -1529214.60146  -1130454.24461
  19931470.0454   -3203380.93147  -2453723.42163
  22365043.686   -12627555.813 6  -9731244.74321
 97  2  4 23 55 59.9980000  0  6G 2G27G 9G26G 7G 4
  21065063.8894    -865730.12247
  22412279.2484    4869847.66045   3770109.08161
  23180076.115    -6903158.508 5  -5271952.82321
  22543603.2484   -1522991.24346  -1125604.87661
  19929012.1004   -3216307.95447
  22339518.6394  -12761682.91146  -9835759.33161
 97  2  4 23 56 29.9980000  0  6G 2G27G 9G26G 7G 4
  21062681.7174    -878252.12547
  22424775.615     4935522.383 5   3821284.15621
  23154926.506    -7035315.562 5  -5374932.29621
  22544863.3114   -1516364.53746  -1120441.21161
  19926630.6074   -3228826.12547
  22314031.342   -12895625.751 6  -9940130.33721
 97  2  4 23 56 59.9980000  0  6G 2G27G 9G26G 7G 4
  21060329.9824    -890609.60347   -677657.94862
  22437322.006     5001447.566 5   3872654.38321
  23129802.076    -7167318.840 5  -5477791.94821
  22546200.1704   -1509336.35146  -1114964.70361
  19924322.2254   -3240952.13447  -2482999.66563
  22288578.092   -13029392.014 6 -10044363.74221
 97  2  4 23 57 29.9980000  0  6G 2G27G 9G26G 7G 4
  21058014.0764    -902785.81847   -687145.91562
  22449918.772     5067643.740 5   3924235.77521
  23104716.748    -7299155.483 5  -5580521.75921
  22547619.1314   -1501892.52545  -1109164.33961
  19922085.4594   -3252680.03847  -2492138.27862
  22263163.9514  -13162949.64046 -10148434.57561
 97  2  4 23 57 59.9980000  0  6G 2G27G 9G26G 7G 4
  21055731.9434    -914766.94747   -696481.86062
  22462565.139     5134111.495 5   3976028.78321
  23079662.3894   -7430827.62945  -5683123.37761
  22549106.318    -1494048.508 5  -1103052.13021
  19919932.8424   -3264028.97147  -2500981.59862
  22237791.6934  -13296280.17046 -10252328.45061
 97  2  4 23 58 29.9980000  0  6G 2G27G 9G26G 7G 4
  21053490.1004    -926569.02747   -705678.28362
  22475260.623     5200824.222 5   4028012.68621
  23054630.240    -7562358.645 5  -5785615.04521
  22550671.2254   -1485834.49845  -1096651.60561
  19917832.0144   -3275034.74347  -2509557.51862
  22212460.248   -13429389.151 6 -10356049.68521
 97  2  4 23 58 59.9980000  0  6G 2G27G 9G26G 7G 4
  21051274.2794    -938187.17247   -714731.38562
  22488003.381     5267774.245 5   4080181.48921
  23029629.5614   -7693748.60445  -5887996.77261
  22552303.1544   -1477264.45545  -1089973.67461
  19915805.4284   -3285714.64247  -2517879.50662
  22187172.553   -13562271.853 6 -10459594.61321
